Regional Weather Roundup
Issued by NWS

Home | Current Version | Previous Version | Text Only | Print | Product List | Glossary Off
Versions: 1 2 3 4 5 6 7 8 9 10 11 12 13 14 15 16 17 18 19 20 21 22 23 24 25 26 27 28 29 30 31 32 33 34 35 36 37 38 39 40 41 42 43 44 45 46 47 48

000
ASUS45 KBOU 231607
RWRCO

WEATHER ROUNDUP FOR COLORADO
NATIONAL WEATHER SERVICE DENVER/BOULDER CO
1000 AM MDT WED JUL 23 2014

NOTE: "FAIR" INDICATES FEW OR NO CLOUDS BELOW 12000 FEET WITH NO
SIGNIFICANT WEATHER AND/OR OBSTRUCTIONS TO VISIBILITY.

COZ001>005-013-030-031-231700-
...NORTHWEST COLORADO...

CITY           SKY/WX    TMP DP  RH WIND       PRES   REMARKS
CRAIG          SUNNY     81  46  29 NE13      30.38S
HAYDEN         NOT AVBL
MEEKER         SUNNY     78  45  30 CALM      30.38F
MOUNT WERNER   NOT AVBL
STEAMBOAT SPGS SUNNY     73  46  38 MISG      30.44S
WALDEN         SUNNY     72  41  33 E3        30.55S
$$

COZ006>008-011-231700-
...WEST CENTRAL VALLEYS...

CITY           SKY/WX    TMP DP  RH WIND       PRES   REMARKS
GRAND JUNCTION SUNNY     87  37  17 SE12      30.26F
MONTROSE       MOSUNNY   89  44  20 E10       30.36F
EAGLE          SUNNY     73  39  29 CALM      30.46F
RIFLE          MOSUNNY   80  44  27 NW5       30.33F
DELTA          MOSUNNY   84  46  26 S3        30.32S
NUCLA          MOSUNNY   82  45  26 N5        30.40F
$$

COZ017>023-064>068-231700-
...SOUTHWEST COLORADO...

CITY           SKY/WX    TMP DP  RH WIND       PRES   REMARKS
DURANGO        MOSUNNY   78  48  34 SE3       30.45F
CORTEZ         NOT AVBL
PAGOSA SPRINGS MOSUNNY   76  41  28 CALM      30.54F
TELLURIDE      MOSUNNY   75  36  23 E5        30.61F
WOLF CREEK PAS NOT AVBL
$$

COZ009-010-012-014-032>034-037-058>063-231700-
...CENTRAL COLORADO...

CITY           SKY/WX    TMP DP  RH WIND       PRES   REMARKS
ASPEN          SUNNY     80  45  28 N5        30.51F
BUENA VISTA    SUNNY     71  43  36 SE3       30.58F
COPPER MTN     SUNNY     64  34  32 S20       30.90S
BERTHOUD PASS  FAIR      55  41  58 MISG      30.95S
COTTONWOOD PAS SUNNY     72  36  26 SE3       30.73S
GUNNISON       SUNNY     72  45  37 N6        30.57F
KREMMLING      SUNNY     72  39  30 CALM      30.52F
LEADVILLE      SUNNY     66  41  40 SW6       30.71F
MONARCH PASS   SUNNY     63  32  31 S7        31.00S
SALIDA         SUNNY    N/A N/A N/A N6        30.62F
SUNLIGHT       SUNNY     68  37  32 CALM      30.79S
WILKERSON PASS SUNNY     63  39  42 S5        30.87F
$$

COZ069>075-231700-
...SAN LUIS VALLEY/SANGRE DE CRISTO MOUNTAINS...

CITY           SKY/WX    TMP DP  RH WIND       PRES   REMARKS
ALAMOSA        SUNNY     73  45  36 VRB3      30.54F
LA VETA PASS   SUNNY     70  41  35 E8        30.75S
SAGUACHE       SUNNY     73  46  38 S3        30.57S
$$

COZ035-036-038>040-231700-
...NORTHERN COLORADO FRONT RANGE...

CITY           SKY/WX    TMP DP  RH WIND       PRES   REMARKS
DENVER INTL AP PTSUNNY   72  62  71 N9        30.37R
DMNS CITY PARK   N/A     75  63  67 NE8G16    30.37R
AURORA         PTSUNNY   75  64  66 NE9       30.39S
FRONT RANGE AP MOSUNNY   75  64  69 N8        30.39R
ERIE MUNI ARPT PTSUNNY   71  62  75 N8        30.37S
BOULDER MUN AP CLOUDY    72  63  73 NE9       30.37S
CENTENNIAL     MOSUNNY   80  52  37 NE3       30.38F
BROOMFIELD     CLOUDY    73  63  68 N12       30.40R
FORT COLLINS   MOSUNNY   68  61  77 N7        30.39R
LONGMONT       PTSUNNY   73  63  71 N10       30.38S
$$

COZ041-046-047-076>085-087-088-231700-
...PIKES PEAK/PALMER DIVIDE AND SOUTHERN FOOTHILLS...

CITY           SKY/WX    TMP DP  RH WIND       PRES   REMARKS
COLO. SPRINGS  MOSUNNY   81  52  36 SE13      30.43S
A. F. ACADEMY  SUNNY     81  48  31 S6        30.44F
ELLICOTT       SUNNY     81  56  42 S13       30.42R
FALCON         SUNNY     81  50  34 SE8       30.49S
FORT CARSON    SUNNY     81  54  38 SE9       30.40S
LIMON          SUNNY     83  60  45 SE16      30.37F
MONUMENT HILL  SUNNY     82  36  18 S16       30.47S
TRINIDAD       SUNNY     83  52  34 NE6       30.40S
$$

COZ042>045-048>051-090-091-231700-
...NORTHEAST COLORADO...

CITY           SKY/WX    TMP DP  RH WIND       PRES   REMARKS
GREELEY ARPT   PTSUNNY   73  61  64 E13       30.36R
AKRON          CLOUDY    71  65  81 E22G29    30.36S
BURLINGTON     CLOUDY    72  66  81 NE13G20   30.37R
WRAY             N/A    N/A N/A N/A E17       30.36S
STERLING       CLOUDY    73  68  83 SE18G24   30.33F
HOLYOKE        CLOUDY    73  64  73 S16       30.33F
FORT MORGAN    CLOUDY    73  64  72 E14       30.35S
$$

COZ086-089-092>099-231700-
...SOUTHEAST COLORADO...

CITY           SKY/WX    TMP DP  RH WIND       PRES   REMARKS
PUEBLO         SUNNY     80  58  46 E6        30.31F
LA JUNTA       SUNNY     80  56  43 SW3       30.29F
LAMAR          SUNNY     88  66  48 NE8       30.23F
SPRINGFIELD      N/A     87  61  41 S12       30.30S
$$


USA.gov is the U.S. government's official web portal to all federal, state and local government web resources and services.